Home   Weather   Churu   Past weeks

Flag for India Past Weather in Churu, Rajasthan, India — Yesterday and Last 2 Weeks

Now
61 °F

Clear.


Feels Like: 61 °F
Forecast: 52 / 81 °F
Wind: No wind

Location: Jaipur / Sanganer

Current Time: Dec 6, 2016 at 12:18:14 am

Latest Report: Dec 6, 2016 at 12:00 am


Visibility: 2 mi

Pressure: 30.07 "Hg

Humidity: 55%

Dew Point: 45 °F

Location of ChuruLocation

Past Weather in Churu — Graph

°F

Churu Temperature Yesterday

Maximum temperature yesterday: 79 °F (at 2:30 pm)
Minimum temperature yesterday: 54 °F (at 6:00 am)
Average temperature yesterday: 68 °F

High & Low Weather Summary for the Past Weeks

 TemperatureHumidityPressure
High88 °F (Nov 29, 2:30 pm)100% (Dec 5, 12:00 am)30.24 "Hg (Dec 5, 12:00 am)
Low52 °F (Dec 4, 6:30 am)13% (Nov 21, 3:30 pm)29.92 "Hg (Nov 22, 4:00 pm)
Average71 °F38%30.04 "Hg
* Reported Nov 20 10:30 pm — Dec 5 11:00 pm, Churu, Weather by CustomWeather, © 2016

Note: Actual official high and low records may vary slightly from our data, if they occured in-between our weather recording intervals... More about our weather records

Advertising

Churu Weather History for the Previous 24 Hours

Scroll right to see more
 ConditionsComfort  
Time TempWeatherWind HumidityBarometerVisibility
11:00 pm
Mon, Dec 5
63 °FClear.2 mph52%30.09 "Hg1 mi
10:30 pm64 °FClear.No wind49%30.09 "Hg1 mi
10:00 pm66 °FClear.2 mph46%30.09 "Hg1 mi
9:30 pm64 °FClear.2 mph46%30.09 "Hg1 mi
9:00 pm66 °FClear.3 mph46%30.09 "Hg1 mi
8:30 pm64 °FClear.No wind49%30.09 "Hg1 mi
7:30 pm68 °FClear.No wind40%30.07 "Hg1 mi
7:00 pm68 °FClear.No wind40%30.07 "Hg1 mi
6:30 pm70 °FClear.No wind35%30.07 "Hg2 mi
5:00 pm77 °FHaze.7 mph24%30.04 "Hg2 mi
4:30 pm79 °FHaze.7 mph23%30.04 "Hg2 mi
4:00 pm79 °FHaze.8 mph23%30.04 "Hg2 mi
3:30 pm79 °FHaze.7 mph23%30.04 "Hg2 mi
3:00 pm79 °FHaze.6 mph24%30.04 "Hg2 mi
2:30 pm79 °FHaze.6 mph23%30.04 "Hg2 mi
1:30 pm77 °FHaze.5 mph24%30.07 "Hg2 mi
1:00 pm77 °FHaze.6 mph26%30.07 "Hg2 mi
12:30 pm77 °FHaze.7 mph24%30.09 "Hg2 mi
12:00 pm75 °FHaze.6 mph29%30.12 "Hg2 mi
11:30 am75 °FHaze.5 mph29%30.12 "Hg2 mi
11:00 am75 °FHaze.3 mph29%30.12 "Hg2 mi
10:30 am73 °FHaze.5 mph31%30.15 "Hg2 mi
10:00 am73 °FHaze.5 mph31%30.15 "Hg2 mi
9:30 am72 °FClear.No wind36%30.15 "Hg1 mi
9:00 am70 °FClear.No wind46%30.12 "Hg1 mi
8:30 am64 °FClear.No wind52%30.12 "Hg1 mi
8:00 am57 °FClear.No wind63%30.12 "Hg1 mi
7:30 am54 °FClear.No wind67%30.12 "Hg1 mi
7:00 am54 °FClear.No wind63%30.09 "Hg1 mi
6:30 am54 °FClear.No wind63%30.09 "Hg1 mi
6:00 am54 °FClear.No wind63%30.09 "Hg1 mi
5:30 am55 °FClear.No wind63%30.09 "Hg1 mi
1:00 am59 °FClear.5 mph55%30.12 "Hg1 mi
12:00 am59 °FClear.No wind100%30.12 "Hg1 mi
Weather by CustomWeather, © 2016

See weather overviewHow to use our weather pages